Simultaneous Nadir Overpasses (SNOs) Predictions

Prediction of SNOs between AQUA and GOES-15 Satellite Orbit:

Table of predicted SNOs for the next 14.0 days since TLE Epoch: 4/25/2014
Index Date Time (AQUA) AQUA Lat,Lon GOES-15 Lat,Lon Distance(km) Time Diff (sec)
1 04/25/2014 22:23:28 0.70,-131.95 -0.03,-135.38 390.40 80
2 04/26/2014 10:44:44 0.42,-137.10 0.03,-135.38 196.70 80
3 04/28/2014 10:32:36 -0.25,-134.17 0.03,-135.35 135.13 80
4 04/28/2014 22:54:00 -0.91,-139.35 -0.03,-135.34 456.95 80
5 04/30/2014 10:20:26 -0.82,-131.21 0.03,-135.32 466.54 80
6 04/30/2014 22:41:51 -0.27,-136.41 -0.03,-135.31 125.54 80
7 05/02/2014 22:29:41 0.32,-133.46 -0.03,-135.27 205.62 80
8 05/03/2014 10:50:57 0.77,-138.61 0.04,-135.27 381.35 80
9 05/05/2014 10:38:47 0.15,-135.67 0.04,-135.22 50.62 80
10 05/07/2014 10:26:37 -0.49,-132.72 0.04,-135.18 279.90 80
11 05/07/2014 22:48:01 -0.63,-137.91 -0.04,-135.16 312.88 80




NCC Satellite Simultaneous Nadir Overpasses (SNOs) Prediction Service
